| time (UTC) | temp F | wind direction | speed MPH | gust MPH | rain 1hr in | rain 24hr in | rain mn in | humidity % | barometer mb |
| 20260506050903 | 51 | 205 | 0.0 | 2.0 | 0.00 | 1.02 | 0.53 | 91 | 1007.2 |
| 20260506050218 | 51 | 202 | 0.0 | 2.0 | 0.00 | 1.02 | 0.53 | 90 | 1007.1 |
| 20260506044503 | 51 | 186 | 1.0 | 3.0 | 0.00 | 1.02 | 0.53 | 90 | 1007.3 |
| 20260506043604 | 51 | 210 | 0.0 | 2.0 | 0.00 | 1.02 | 0.53 | 90 | 1007.2 |
| 20260506042917 | 51 | 195 | 0.0 | 3.0 | 0.00 | 1.02 | 0.53 | 90 | 1007.2 |
| 20260506041803 | 51 | 197 | 1.0 | 5.0 | 0.00 | 1.02 | 0.53 | 90 | 1007.1 |
| 20260506040903 | 51 | 238 | 2.0 | 4.0 | 0.00 | 1.02 | 0.53 | 90 | 1007.3 |
| 20260506040003 | 51 | 233 | 2.0 | 5.0 | 0.00 | 1.02 | 0.53 | 90 | 1007.3 |
| 20260506035403 | 51 | 224 | 2.0 | 5.0 | 0.00 | 1.02 | 0.53 | 90 | 1007.4 |
| 20260506034718 | 51 | 229 | 3.0 | 5.0 | 0.00 | 1.02 | 0.53 | 90 | 1007.4 |
| 20260506033603 | 50 | 223 | 4.0 | 7.0 | 0.00 | 1.02 | 0.53 | 90 | 1007.5 |
| 20260506032703 | 50 | 189 | 4.0 | 10.0 | 0.00 | 1.02 | 0.53 | 90 | 1007.4 |
| 20260506031803 | 51 | 201 | 4.0 | 9.0 | 0.02 | 1.02 | 0.53 | 90 | 1007.5 |
| 20260506031117 | 51 | 207 | 4.0 | 11.0 | 0.02 | 1.02 | 0.53 | 90 | 1007.6 |
| 20260506030217 | 51 | 225 | 6.0 | 11.0 | 0.02 | 1.02 | 0.53 | 91 | 1007.7 |
| 20260506025403 | 51 | 210 | 7.0 | 15.0 | 0.02 | 1.02 | 0.53 | 91 | 1007.7 |
| 20260506024503 | 51 | 219 | 5.0 | 10.0 | 0.02 | 1.02 | 0.53 | 91 | 1007.8 |
| 20260506023603 | 51 | 211 | 2.0 | 7.0 | 0.02 | 1.02 | 0.53 | 91 | 1008.0 |
| 20260506022703 | 51 | 241 | 2.0 | 7.0 | 0.02 | 1.02 | 0.53 | 91 | 1008.0 |
| 20260506021803 | 51 | 224 | 4.0 | 9.0 | 0.00 | 1.00 | 0.51 | 90 | 1008.1 |
| 20260506021117 | 51 | 211 | 3.0 | 9.0 | 0.02 | 1.00 | 0.51 | 90 | 1008.2 |
| 20260506020004 | 51 | 200 | 5.0 | 12.0 | 0.04 | 1.00 | 0.51 | 90 | 1008.3 |
| 20260506015403 | 51 | 198 | 6.0 | 12.0 | 0.08 | 1.00 | 0.51 | 90 | 1008.4 |
| 20260506014503 | 51 | 207 | 5.0 | 12.0 | 0.19 | 1.00 | 0.51 | 90 | 1008.3 |
| 20260506013603 | 50 | 210 | 6.0 | 12.0 | 0.29 | 1.00 | 0.51 | 90 | 1008.3 |
| 20260506012703 | 50 | 233 | 8.0 | 13.0 | 0.31 | 1.00 | 0.51 | 90 | 1008.2 |
| 20260506011803 | 50 | 246 | 6.0 | 11.0 | 0.31 | 1.00 | 0.51 | 90 | 1008.0 |
| 20260506010903 | 50 | 234 | 2.0 | 5.0 | 0.31 | 0.98 | 0.49 | 90 | 1008.0 |
| 20260506010004 | 50 | 275 | 0.0 | 2.0 | 0.29 | 0.96 | 0.47 | 90 | 1007.8 |
| 20260506005403 | 50 | 242 | 2.0 | 9.0 | 0.26 | 0.92 | 0.43 | 90 | 1007.7 |
| 20260506004503 | 50 | 267 | 3.0 | 9.0 | 0.26 | 0.81 | 0.33 | 90 | 1007.8 |
| 20260506003603 | 50 | 226 | 4.0 | 9.0 | 0.20 | 0.71 | 0.22 | 90 | 1007.6 |
| 20260506002703 | 51 | 191 | 5.0 | 12.0 | 0.20 | 0.69 | 0.20 | 90 | 1007.8 |
| 20260506001804 | 50 | 199 | 4.0 | 13.0 | 0.20 | 0.69 | 0.20 | 90 | 1007.8 |
| 20260506000903 | 50 | 208 | 1.0 | 8.0 | 0.19 | 0.67 | 0.18 | 90 | 1008.0 |
| 20260506000003 | 50 | 264 | 1.0 | 4.0 | 0.19 | 0.67 | 0.18 | 90 | 1008.2 |
| 20260505235403 | 50 | 263 | 2.0 | 9.0 | 0.16 | 0.65 | 0.16 | 90 | 1008.2 |
| 20260505234503 | 50 | 270 | 3.0 | 6.0 | 0.06 | 0.55 | 0.06 | 90 | 1008.2 |
| 20260505233603 | 51 | 219 | 6.0 | 11.0 | 0.02 | 0.51 | 0.02 | 90 | 1008.3 |
| 20260505232703 | 51 | 196 | 8.0 | 17.0 | 0.00 | 0.49 | 0.00 | 90 | 1008.3 |
| 20260505232017 | 51 | 202 | 7.0 | 17.0 | 0.00 | 0.49 | 0.00 | 90 | 1008.4 |
| 20260505230903 | 51 | 200 | 5.0 | 11.0 | 0.00 | 0.49 | 0.00 | 90 | 1008.5 |
| 20260505230004 | 51 | 172 | 5.0 | 11.0 | 0.00 | 0.49 | 0.00 | 90 | 1008.4 |
| 20260505225403 | 51 | 180 | 7.0 | 17.0 | 0.00 | 0.49 | 0.00 | 90 | 1008.4 |
| 20260505224503 | 50 | 174 | 7.0 | 14.0 | 0.00 | 0.49 | 0.00 | 90 | 1008.4 |
| 20260505223603 | 50 | 165 | 8.0 | 13.0 | 0.00 | 0.49 | 0.00 | 90 | 1008.5 |
| 20260505222703 | 50 | 183 | 7.0 | 17.0 | 0.00 | 0.49 | 0.00 | 90 | 1008.5 |
| 20260505221803 | 50 | 184 | 6.0 | 12.0 | 0.00 | 0.49 | 0.00 | 90 | 1008.7 |
| 20260505220903 | 50 | 171 | 7.0 | 16.0 | 0.00 | 0.49 | 0.00 | 90 | 1008.8 |
| 20260505220004 | 50 | 187 | 7.0 | 18.0 | 0.00 | 0.49 | 0.00 | 90 | 1008.6 |
| 20260505215403 | 50 | 183 | 8.0 | 16.0 | 0.00 | 0.49 | 0.49 | 90 | 1008.6 |
| 20260505214503 | 50 | 186 | 8.0 | 19.0 | 0.00 | 0.49 | 0.49 | 90 | 1008.7 |
| 20260505213817 | 50 | 186 | 7.0 | 18.0 | 0.00 | 0.49 | 0.49 | 90 | 1008.7 |
| 20260505212703 | 50 | 178 | 7.0 | 13.0 | 0.00 | 0.49 | 0.49 | 90 | 1008.7 |
| 20260505212018 | 50 | 184 | 9.0 | 21.0 | 0.00 | 0.49 | 0.49 | 90 | 1008.8 |
| 20260505210903 | 50 | 179 | 8.0 | 16.0 | 0.00 | 0.49 | 0.49 | 90 | 1008.7 |
| 20260505210003 | 50 | 180 | 7.0 | 15.0 | 0.00 | 0.49 | 0.49 | 90 | 1008.9 |
| 20260505205403 | 50 | 179 | 8.0 | 16.0 | 0.00 | 0.49 | 0.49 | 90 | 1008.9 |
| 20260505204503 | 50 | 185 | 10.0 | 18.0 | 0.00 | 0.49 | 0.49 | 90 | 1009.0 |
| 20260505203817 | 50 | 195 | 8.0 | 17.0 | 0.00 | 0.49 | 0.49 | 90 | 1009.0 |
| 20260505202916 | 50 | 178 | 9.0 | 18.0 | 0.00 | 0.49 | 0.49 | 90 | 1008.9 |
| 20260505201803 | 50 | 183 | 11.0 | 20.0 | 0.00 | 0.49 | 0.49 | 90 | 1009.0 |
| 20260505200903 | 50 | 190 | 11.0 | 18.0 | 0.00 | 0.49 | 0.49 | 90 | 1008.9 |
| 20260505200218 | 50 | 188 | 10.0 | 18.0 | 0.00 | 0.49 | 0.49 | 90 | 1008.9 |
| 20260505195403 | 50 | 191 | 10.0 | 18.0 | 0.00 | 0.49 | 0.49 | 90 | 1008.8 |
| 20260505194503 | 50 | 182 | 10.0 | 19.0 | 0.00 | 0.49 | 0.49 | 90 | 1009.0 |
| 20260505193603 | 50 | 184 | 10.0 | 18.0 | 0.02 | 0.49 | 0.49 | 90 | 1008.8 |
| 20260505192703 | 50 | 186 | 11.0 | 20.0 | 0.02 | 0.49 | 0.49 | 90 | 1008.7 |
| 20260505191804 | 50 | 195 | 11.0 | 20.0 | 0.04 | 0.49 | 0.49 | 90 | 1008.7 |
| 20260505190903 | 50 | 185 | 10.0 | 17.0 | 0.04 | 0.49 | 0.49 | 90 | 1008.6 |
| 20260505190004 | 50 | 181 | 8.0 | 17.0 | 0.04 | 0.49 | 0.49 | 90 | 1008.6 |
| 20260505185403 | 50 | 171 | 10.0 | 19.0 | 0.04 | 0.49 | 0.49 | 90 | 1008.4 |
| 20260505184504 | 50 | 184 | 9.0 | 17.0 | 0.04 | 0.49 | 0.49 | 90 | 1008.4 |
| 20260505183603 | 50 | 191 | 8.0 | 16.0 | 0.02 | 0.47 | 0.47 | 90 | 1008.4 |
| 20260505182703 | 50 | 178 | 8.0 | 16.0 | 0.02 | 0.47 | 0.47 | 90 | 1008.5 |
| 20260505181803 | 50 | 191 | 7.0 | 16.0 | 0.02 | 0.45 | 0.45 | 90 | 1008.5 |
| 20260505180903 | 50 | 186 | 9.0 | 16.0 | 0.02 | 0.45 | 0.45 | 90 | 1008.5 |
| 20260505180003 | 50 | 208 | 7.0 | 13.0 | 0.04 | 0.45 | 0.45 | 90 | 1008.5 |
| 20260505175403 | 50 | 213 | 7.0 | 13.0 | 0.04 | 0.45 | 0.45 | 90 | 1008.5 |
| 20260505174503 | 49 | 209 | 3.0 | 9.0 | 0.08 | 0.45 | 0.45 | 89 | 1008.4 |
| 20260505173603 | 49 | 201 | 0.0 | 2.0 | 0.10 | 0.45 | 0.45 | 89 | 1008.5 |
| 20260505172703 | 49 | 90 | 0.0 | 1.0 | 0.12 | 0.45 | 0.45 | 89 | 1008.5 |
| 20260505171803 | 49 | 168 | 0.0 | 1.0 | 0.14 | 0.43 | 0.43 | 89 | 1008.7 |
| 20260505170904 | 49 | 322 | 0.0 | 1.0 | 0.16 | 0.43 | 0.43 | 89 | 1008.9 |
| 20260505170004 | 49 | 319 | 0.0 | 1.0 | 0.19 | 0.41 | 0.41 | 89 | 1008.6 |
| 20260505165403 | 49 | 261 | 0.0 | 2.0 | 0.20 | 0.41 | 0.41 | 89 | 1009.0 |
| 20260505164718 | 49 | 247 | 1.0 | 3.0 | 0.20 | 0.39 | 0.39 | 89 | 1009.0 |
| 20260505163817 | 49 | 3 | 0.0 | 3.0 | 0.20 | 0.37 | 0.37 | 89 | 1008.9 |
| 20260505162703 | 49 | 252 | 0.0 | 2.0 | 0.16 | 0.33 | 0.33 | 89 | 1009.0 |
| 20260505161803 | 49 | 253 | 1.0 | 2.0 | 0.14 | 0.29 | 0.29 | 89 | 1009.1 |
| 20260505160903 | 49 | 261 | 0.0 | 3.0 | 0.12 | 0.26 | 0.27 | 89 | 1009.1 |
| 20260505152703 | 49 | 253 | 3.0 | 5.0 | 0.04 | 0.17 | 0.16 | 88 | 1009.1 |
| 20260505151803 | 49 | 245 | 3.0 | 6.0 | 0.02 | 0.14 | 0.14 | 88 | 1009.2 |
| 20260505150903 | 49 | 225 | 2.0 | 6.0 | 0.04 | 0.14 | 0.14 | 88 | 1009.5 |
| 20260505130218 | 50 | 225 | 2.0 | 5.0 | 0.02 | 0.08 | 0.08 | 88 | 1010.0 |
| 20260505124503 | 50 | 232 | 2.0 | 4.0 | 0.04 | 0.08 | 0.08 | 88 | 1010.1 |
| 20260505123603 | 50 | 208 | 1.0 | 4.0 | 0.04 | 0.08 | 0.08 | 87 | 1010.1 |
| 20260505122703 | 50 | 206 | 1.0 | 3.0 | 0.04 | 0.08 | 0.08 | 87 | 1010.2 |
| 20260505121803 | 51 | 193 | 1.0 | 3.0 | 0.02 | 0.06 | 0.06 | 87 | 1010.2 |
| 20260505121118 | 50 | 207 | 2.0 | 5.0 | 0.02 | 0.06 | 0.06 | 87 | 1010.3 |
| 20260505120003 | 50 | 218 | 4.0 | 8.0 | 0.02 | 0.06 | 0.06 | 87 | 1010.3 |
| 20260505115403 | 50 | 227 | 4.0 | 8.0 | 0.02 | 0.06 | 0.06 | 86 | 1010.3 |
| 20260505114718 | 50 | 225 | 5.0 | 9.0 | 0.00 | 0.04 | 0.06 | 86 | 1010.4 |
| 20260505113603 | 51 | 212 | 3.0 | 6.0 | 0.02 | 0.04 | 0.04 | 86 | 1010.3 |
| 20260505112703 | 51 | 167 | 3.0 | 5.0 | 0.02 | 0.04 | 0.04 | 86 | 1010.4 |
| 20260505111803 | 50 | 181 | 3.0 | 6.0 | 0.02 | 0.04 | 0.04 | 85 | 1010.5 |
| 20260505111117 | 50 | 178 | 4.0 | 8.0 | 0.04 | 0.04 | 0.04 | 85 | 1010.5 |
| 20260505101803 | 51 | 224 | 4.0 | 9.0 | 0.02 | 0.02 | 0.02 | 84 | 1011.0 |
| 20260505100903 | 52 | 215 | 6.0 | 11.0 | 0.00 | 0.00 | 0.00 | 83 | 1011.0 |
| 20260505100004 | 52 | 216 | 8.0 | 14.0 | 0.00 | 0.00 | 0.00 | 84 | 1011.0 |
| 20260505095403 | 52 | 207 | 7.0 | 14.0 | 0.00 | 0.00 | 0.00 | 83 | 1011.0 |
| 20260505094503 | 53 | 209 | 6.0 | 11.0 | 0.00 | 0.00 | 0.00 | 82 | 1011.0 |
| 20260505093817 | 53 | 224 | 6.0 | 14.0 | 0.00 | 0.00 | 0.00 | 82 | 1011.2 |
| 20260505092918 | 53 | 220 | 7.0 | 14.0 | 0.00 | 0.00 | 0.00 | 80 | 1011.1 |
| 20260505092017 | 54 | 205 | 6.0 | 10.0 | 0.00 | 0.00 | 0.00 | 78 | 1011.1 |
| 20260505090903 | 54 | 187 | 7.0 | 14.0 | 0.00 | 0.00 | 0.00 | 76 | 1011.1 |
| 20260505090003 | 54 | 191 | 7.0 | 14.0 | 0.00 | 0.00 | 0.00 | 76 | 1011.0 |
| 20260505085403 | 54 | 194 | 7.0 | 13.0 | 0.00 | 0.00 | 0.00 | 75 | 1011.0 |
| 20260505084503 | 55 | 212 | 8.0 | 18.0 | 0.00 | 0.00 | 0.00 | 74 | 1010.8 |
| 20260505083603 | 55 | 203 | 5.0 | 11.0 | 0.00 | 0.00 | 0.00 | 75 | 1010.5 |
| 20260505082918 | 55 | 220 | 7.0 | 14.0 | 0.00 | 0.00 | 0.00 | 75 | 1010.8 |
| 20260505081803 | 56 | 230 | 9.0 | 16.0 | 0.00 | 0.00 | 0.00 | 74 | 1010.9 |
| 20260505080903 | 55 | 222 | 7.0 | 15.0 | 0.00 | 0.00 | 0.00 | 76 | 1010.8 |
| 20260505080003 | 55 | 221 | 8.0 | 16.0 | 0.00 | 0.00 | 0.00 | 77 | 1010.8 |
| 20260505075403 | 54 | 227 | 7.0 | 13.0 | 0.00 | 0.00 | 0.00 | 77 | 1010.5 |
| 20260505074503 | 54 | 221 | 6.0 | 12.0 | 0.00 | 0.00 | 0.00 | 78 | 1010.6 |
| 20260505073818 | 54 | 206 | 7.0 | 13.0 | 0.00 | 0.00 | 0.00 | 79 | 1010.6 |
| 20260505072703 | 54 | 233 | 7.0 | 14.0 | 0.00 | 0.00 | 0.00 | 79 | 1010.5 |
| 20260505071803 | 54 | 234 | 5.0 | 12.0 | 0.00 | 0.00 | 0.00 | 78 | 1010.5 |
| 20260505070903 | 54 | 237 | 4.0 | 9.0 | 0.00 | 0.00 | 0.00 | 77 | 1010.5 |
| 20260505070003 | 54 | 223 | 5.0 | 10.0 | 0.00 | 0.00 | 0.00 | 78 | 1010.4 |
| 20260505065403 | 54 | 243 | 3.0 | 7.0 | 0.00 | 0.00 | 0.00 | 77 | 1010.5 |
| 20260505064503 | 53 | 249 | 3.0 | 5.0 | 0.00 | 0.00 | 0.00 | 76 | 1010.5 |
| 20260505063603 | 53 | 245 | 2.0 | 4.0 | 0.00 | 0.00 | 0.00 | 76 | 1010.5 |
| 20260505062703 | 53 | 226 | 1.0 | 2.0 | 0.00 | 0.00 | 0.00 | 76 | 1010.4 |
| 20260505061803 | 53 | 0 | 0.0 | 0.0 | 0.00 | 0.00 | 0.00 | 75 | 1010.3 |
| 20260505060903 | 52 | 0 | 0.0 | 0.0 | 0.00 | 0.00 | 0.00 | 74 | 1010.4 |
| 20260505060003 | 52 | 337 | 0.0 | 1.0 | 0.00 | 0.00 | 0.00 | 73 | 1010.3 |
| 20260505055403 | 52 | 284 | 0.0 | 1.0 | 0.00 | 0.00 | 0.00 | 73 | 1010.3 |
| 20260505054503 | 52 | 267 | 0.0 | 1.0 | 0.00 | 0.00 | 0.00 | 73 | 1010.3 |
| 20260505053817 | 52 | 164 | 0.0 | 2.0 | 0.00 | 0.00 | 0.00 | 71 | 1010.2 |
| 20260505052703 | 52 | 135 | 0.0 | 1.0 | 0.00 | 0.00 | 0.00 | 70 | 1010.1 |
| 20260505051803 | 52 | 190 | 1.0 | 4.0 | 0.00 | 0.00 | 0.00 | 70 | 1010.1 |